Notices

What's New in latest Release from April 7th, 2021:

- Updated Glossary, including Speed of Maximum Gust, and Total Hourly Precipitation

- Updated national and regional climate services offices contacts and prices information

- Addition of station inventory lists for 1981-2010, 1971-2000, and 1961-1990 Normals.

If you haven't already, please take our survey and provide feedback about our website: https://eccc.sondage-survey.ca/f/LanguageSelection.aspx?s=442ca660-fcf1-47c0-95a9-59707d6fd709

Hourly Data Report for January 07, 2021

SHEARWATER RCS
NOVA SCOTIA
Current Station Operator: ECCC - MSC

44°37'47.000" N
63°30'48.000" W
24.00 m
8205092
71264
AAW

Download Data

Hourly Data (January 2021)
Hourly Data Report for January 7, 2021
TIME
LST
Temp Definition
°C
Dew Point Definition
°C
Rel Hum Definition
%
Precip. Amount Definition
mm

Wind Dir Definition
10's deg

Wind Spd Definition
km/h
Visibility Definition
km
Stn Press Definition
kPa
Hmdx Definition


Wind Chill Definition


Weather Definition


00:00 1.0 -0.4 90 0.6 35 24   99.74     LegendNANA
01:00 0.9 -0.7 89 0.2 35 25   99.73     LegendNANA
02:00 1.1 -0.7 88 0.0 34 22   99.76     LegendNANA
03:00 1.3 -0.7 87 0.0 34 24   99.80     LegendNANA
04:00 1.3 -0.6 87 0.0 34 25   99.81     LegendNANA
05:00 1.4 -0.4 88 0.0 34 22   99.81     LegendNANA
06:00 1.4 -0.4 88 0.0 33 23   99.85     LegendNANA
07:00 1.4 -0.5 87 0.0 34 25   99.88     LegendNANA
08:00 1.4 -0.7 86 0.0 33 24   99.94     LegendNANA
09:00 1.3 -0.6 88 0.3 34 24   99.99     LegendNANA
10:00 1.6 -0.9 84 0.0 33 27   100.00     LegendNANA
11:00 1.5 -1.3 82 0.0 33 26   99.96     LegendNANA
12:00 1.7 -1.5 79 0.0 33 25   99.90     LegendNANA
13:00 1.6 -1.7 78 0.0 33 25   99.84     LegendNANA
14:00 1.3 -1.2 83 0.3 32 19   99.82     LegendNANA
15:00 1.2 -1.9 80 0.0 33 26   99.86     LegendNANA
16:00 1.0 -2.0 80 0.0 32 23   99.89     LegendNANA
17:00 0.6 -2.3 81 0.2 32 20   99.90     LegendNANA
18:00 0.2 -2.3 84 0.0 32 24   99.93     LegendNANA
19:00 0.3 -2.6 81 0.0 32 24   99.96     LegendNANA
20:00 0.3 -2.5 82 0.0 32 23   99.98     LegendNANA
21:00 0.2 -2.4 83 0.0 32 21   99.96     LegendNANA
22:00 0.2 -2.6 81 0.0 32 21   99.93     LegendNANA
23:00 0.2 -2.8 80 0.0 32 24   99.94     LegendNANA

Notes on Data Quality.

Legend

  • E = Estimated
  • M = Missing
  • NA = Not Available*
  • [empty] = Indicates an unobserved value
Date modified: